Weather History for Alexandria, MN

Change the Weather History Date:

Wednesday, November 20, 2013

  Actual Average Record
Temperature  
Mean Temperature 38 °F -  
Max Temperature 48 °F 32 °F 60 °F (1962)
Min Temperature 28 °F 18 °F 0 °F (1950)
Degree Days  
Heating Degree Days 27    
Moisture  
Dew Point 30 °F    
Average Humidity 70    
Maximum Humidity 93    
Minimum Humidity 50    
Precipitation  
Precipitation 0.00 in - - ()
Sea Level Pressure  
Sea Level Pressure 29.89 in    
Wind  
Wind Speed 13 mph (South)    
Max Wind Speed 17 mph    
Max Gust Speed 28 mph    
Visibility 9 miles    
Events Snow    
Averages and records for this station are not official NWS values.
T = Trace of Precipitation, MM = Missing Value Source: NWS Daily Summary

Daily Weather History Graph

Daily Weather History Graph

Search for Another Location

Airport:

Trip Planner

Search our weather history database for the weather conditions in past years. The results will help you decide how hot, cold, wet, or windy it might be!

Date:

Astronomy

Nov. 20, 2013 Rise Set
Actual Time 7:28 AM CST 4:45 PM CST
Civil Twilight 6:56 AM CST 5:18 PM CST
Nautical Twilight 6:19 AM CST 5:54 PM CST
Astronomical Twilight 5:44 AM CST 6:30 PM CST
Moon 7:29 PM CST (11/20) 9:55 AM CST (11/20)
Length of Visible Light 10h 22m
Length of Day
9h 16m
Waning Gibbous, 91% of the Moon is Illuminated
Nov 20
Waning Gibbous
Nov 25
Last Quarter
Dec 2
New
Dec 9
First Quarter
Dec 17
Full

Hourly Weather History & Observations

Time (CST) Temp. Windchill Dew Point Humidity Pressure Visibility Wind Dir Wind Speed Gust Speed Precip Events Conditions
12:53 AM 44.1 °F 36.5 °F 30.0 °F 58% 29.75 in 10.0 mi South 17.3 mph 27.6 mph N/A   Clear
1:53 AM 44.1 °F 36.5 °F 30.0 °F 58% 29.76 in 10.0 mi South 17.3 mph - N/A   Clear
2:53 AM 43.0 °F 35.4 °F 30.0 °F 60% 29.78 in 10.0 mi South 16.1 mph - N/A   Clear
3:53 AM 43.0 °F 35.4 °F 30.0 °F 60% 29.78 in 10.0 mi South 16.1 mph 25.3 mph N/A   Clear
4:53 AM 42.1 °F 33.9 °F 30.0 °F 62% 29.78 in 10.0 mi South 17.3 mph - N/A   Clear
5:53 AM 41.0 °F 33.1 °F 30.0 °F 65% 29.80 in 10.0 mi South 15.0 mph 23.0 mph N/A   Clear
6:53 AM 39.9 °F 32.5 °F 30.0 °F 68% 29.81 in 10.0 mi South 12.7 mph - N/A   Clear
7:53 AM 39.9 °F 33.4 °F 30.0 °F 68% 29.82 in 8.0 mi South 10.4 mph - N/A   Partly Cloudy
8:53 AM 41.0 °F 33.5 °F 30.0 °F 65% 29.84 in 10.0 mi South 13.8 mph - N/A   Partly Cloudy
9:53 AM 43.0 °F 36.0 °F 30.0 °F 60% 29.85 in 10.0 mi South 13.8 mph - N/A   Clear
10:53 AM 46.0 °F 39.9 °F 30.0 °F 54% 29.86 in 10.0 mi South 13.8 mph - N/A   Clear
11:53 AM 46.0 °F 40.6 °F 30.0 °F 54% 29.86 in 10.0 mi South 11.5 mph 20.7 mph N/A   Clear
12:53 PM 46.9 °F - 30.0 °F 52% 29.85 in 10.0 mi South 10.4 mph - N/A   Clear
1:53 PM 48.0 °F - 30.9 °F 52% 29.85 in 10.0 mi SSW 5.8 mph - N/A   Clear
2:53 PM 48.9 °F - 30.9 °F 50% 29.85 in 10.0 mi South 8.1 mph - N/A   Clear
3:53 PM 46.9 °F - 33.1 °F 59% 29.85 in 10.0 mi SE 11.5 mph - N/A   Clear
4:53 PM 43.0 °F 37.7 °F 32.0 °F 65% 29.89 in 10.0 mi SE 9.2 mph - N/A   Clear
5:53 PM 39.0 °F 33.4 °F 32.0 °F 76% 29.92 in 10.0 mi SE 8.1 mph - N/A   Clear
6:53 PM 37.0 °F 31.6 °F 32.0 °F 82% 29.95 in 9.0 mi SE 6.9 mph - 0.00 in Snow Light Snow
7:53 PM 34.0 °F 29.8 °F 30.0 °F 85% 29.98 in 9.0 mi SSE 4.6 mph - 0.00 in Snow Light Snow
8:53 PM 33.1 °F 28.7 °F 30.0 °F 89% 30.00 in 9.0 mi SE 4.6 mph - 0.00 in Snow Light Snow
9:53 PM 28.9 °F 22.8 °F 27.0 °F 92% 30.02 in 7.0 mi West 5.8 mph - 0.00 in Snow Light Snow
10:13 PM 30.2 °F 22.6 °F 28.4 °F 93% 29.99 in 6.0 mi WNW 8.1 mph - 0.00 in Snow Light Snow
10:53 PM 30.9 °F 22.2 °F 28.0 °F 89% 30.05 in 6.0 mi NW 10.4 mph - 0.00 in Snow Light Snow
11:08 PM 30.2 °F 21.3 °F 28.4 °F 93% 30.02 in 5.0 mi WNW 10.4 mph - 0.00 in Snow Light Snow
11:17 PM 30.2 °F 21.9 °F 28.4 °F 93% 30.02 in 5.0 mi WNW 9.2 mph - 0.00 in Snow Light Snow
11:53 PM 30.0 °F 20.0 °F 28.0 °F 92% 30.08 in 6.0 mi WNW 12.7 mph - 0.00 in Snow Light Snow